Location: Gipe Farm
(40.9466°N, 95.5370°W)
Time: 13:46:58
(UTC-05:00)

Daily predictions for brighter satellites

Satellite Brightness Start Highest point End
(mag) Time Altitude Azimuth Time Altitude Azimuth Time Altitude Azimuth
Cosmos-2242 4.2 19:31:00 10° SE 19:34:27 23° E 19:37:55 10° NE
Cosmos 2056 Rocket 3.7 19:29:52 10° NNW 19:35:21 89° WSW 19:40:45 10° SSE
Cosmos 192 4.5 19:30:49 10° S 19:35:38 54° ESE 19:40:29 10° NNE
Cosmos 1441 Rocket 4.4 19:32:16 10° NNW 19:35:52 48° W 19:39:28 10° S
Cosmos 2034 Rocket 4.5 19:31:24 10° SSE 19:37:04 38° E 19:42:50 10° NNE
ATLAS CENTAUR R/B 2.7 19:33:08 10° NW 19:37:06 42° WSW 19:40:45 10° S
Meteor 1-28 Rocket 3.6 19:34:08 10° NNE 19:37:39 39° E 19:41:08 10° SSE
Cosmos 1464 Rocket 4.1 19:32:07 10° SSE 19:38:08 52° E 19:44:06 10° NNE
Cosmos 2278 Rocket 3.6 19:34:07 10° NW 19:39:26 43° WSW 19:44:44 10° S
CZ-4C R/B 3.5 19:34:39 10° WSW 19:39:43 41° NW 19:45:25 10° NNE
Cosmos 1805 4.1 19:38:16 10° SSE 19:41:38 28° E 19:45:01 10° NNE
ISS -1.4 19:40:23 10° SSE 19:42:16 15° SE 19:44:06 10° E
Cosmos 1953 3.1 19:39:30 10° SSE 19:42:59 30° E 19:46:28 10° NNE
Cosmos 2297 3.9 19:41:14 10° NNW 19:46:55 78° WSW 19:52:32 10° SSE
ALOS 3.5 19:43:45 10° ESE 19:47:15 21° ENE 19:50:46 10° NNE
SL-19 R/B 4.4 19:41:56 10° SSE 19:47:33 87° ENE 19:53:33 10° NNW
HJ-1C 4.2 19:46:04 10° SE 19:49:03 30° ENE 19:52:03 10° N
SKYMED 2 4.2 19:47:00 10° N 19:51:18 60° WNW 19:55:34 10° SSW
Meteor 1-22 Rocket 4.2 19:47:43 10° S 19:53:03 82° W 19:58:22 10° N
Cosmos 1408 Rocket 3.6 19:49:54 10° N 19:54:11 55° E 19:58:24 10° SSE
GPS 2-04 Rocket1 4.2 19:53:44 10° SSW 19:56:13 18° SSE 19:58:12 13° ESE
Cosmos 2369 Rocket 3.6 19:52:21 10° N 19:56:34 21° NE 19:59:46 14° E
Cosmos 1943 4.4 19:54:12 10° SE 19:57:59 19° E 20:01:47 10° ENE
USA 215 3.5 19:53:09 10° NE 19:59:30 51° SE 20:05:48 10° SSW
Meteor 1-24 Rocket 4.2 19:54:37 10° NNW 20:00:11 66° W 20:05:32 10° S
Cosmos 1603 3.9 19:57:20 10° S 20:02:49 49° ESE 20:08:21 10° NE
Aureole 2 Rocket 4.1 19:59:28 10° SW 20:03:42 48° WNW 20:07:51 10° N
Cosmos 1470 4.0 20:02:17 10° SE 20:05:11 20° E 20:08:05 10° NE
NOAA 12 4.1 20:01:51 10° SSE 20:07:06 88° WSW 20:12:26 10° NNW
SL-8 R/B 4.0 20:04:14 10° SW 20:08:48 47° SE 20:12:16 17° ENE
SJ-6B 3.4 20:09:00 10° S 20:12:56 63° W 20:16:59 10° NNW
FREGAT/IRIS 2.9 20:10:20 10° S 20:13:24 71° WSW 20:16:30 10° NNW
Meteor 1-29 3.2 20:10:51 10° NNE 20:14:16 46° E 20:17:38 10° S
SeaSat 1 3.9 20:15:13 18° ESE 20:15:13 18° ESE 20:17:40 10° SSE
CZ-4B DEB 3.7 20:14:31 25° ESE 20:15:26 29° ENE 20:18:19 10° N
Resurs 1-3 3.7 20:12:08 10° SSE 20:16:25 56° ENE 20:20:44 10° N
Helios 1A 2.9 20:12:56 10° SSE 20:17:06 65° ENE 20:21:18 10° N
Cosmos 724 4.3 20:12:07 10° SSW 20:18:00 78° ESE 20:24:06 10° NE
Resurs 01 Rocket 1.5 20:15:19 10° SSE 20:19:45 80° ENE 20:24:14 10° N
Cosmos 1674 3.4 20:16:28 10° NNE 20:20:01 33° ENE 20:21:24 25° ESE
In-Cosmos 22 4.3 20:14:53 10° N 20:20:42 86° W 20:26:26 10° S
Cosmos 1743 Rocket 3.6 20:19:02 10° N 20:23:24 54° E 20:27:43 10° SSE
Cosmos 1758 3.5 20:21:56 10° S 20:26:00 79° W 20:30:08 10° N
Abrixas 2.4 20:25:59 10° SW 20:28:57 65° SSE 20:29:31 50° E
FengYun 1-2 T 4.1 20:24:37 10° SSE 20:30:07 77° ENE 20:35:37 10° N
Cosmos 1452 Rocket 3.9 20:26:34 10° NNW 20:31:47 66° WSW 20:36:58 10° S
Cosmos 1346 2.8 20:30:29 10° N 20:33:29 86° E 20:34:43 32° SSE
TELKOM 3 4.0 20:35:18 10° NW 20:37:25 38° N 20:37:25 38° N
ATLAS 5 CENTAUR R/B 2.7 20:33:37 10° SW 20:38:16 50° NW 20:43:21 10° NNE
Nadezhda 4 Rocket 3.9 20:38:35 10° N 20:44:54 89° E 20:51:06 10° S
GP-B 3.5 20:41:45 10° NNE 20:45:48 41° E 20:45:48 41° E
ASTEX 1 3.2 20:46:14 10° N 20:51:10 79° E 20:56:03 10° S
Cosmos 1420 Rocket 4.1 20:47:35 10° NNW 20:52:54 77° WSW 20:56:54 18° S
Cosmos 1092 Rocket 3.8 20:46:43 10° N 20:52:57 75° E 20:58:30 13° SSE
Cosmos 1544 4.0 20:50:21 10° SSW 20:53:58 50° W 20:57:39 10° N
Helios 1B rocket 3.5 20:50:04 10° N 20:54:00 45° WNW 20:57:55 10° SW
Cosmos 1655 Rocket 4.4 20:49:23 10° N 20:55:12 39° ENE 20:55:58 38° E
Cosmos 2142 Rocket 4.5 20:53:07 10° S 20:59:21 61° E 21:05:39 10° NNE
SL-16 R/B 4.5 20:55:13 10° WSW 20:59:44 24° NW 21:04:18 10° N
CZ-2D R/B 3.2 21:00:07 53° S 21:00:59 81° WSW 21:04:54 10° NNW
CENTAUR R/B 2.3 20:59:43 10° SSW 21:05:41 72° ESE 21:12:25 10° NE
Cosmos 2026 Rocket 4.0 21:00:13 10° N 21:06:11 53° E 21:07:12 48° ESE
OAO 3 Rocket 4.0 21:03:15 10° WSW 21:07:36 36° S 21:07:53 36° S
Cosmos 1634 Rocket 3.8 21:01:49 10° S 21:08:02 76° E 21:14:15 10° N
Cosmos 1048 Rocket 4.5 21:06:28 10° SSW 21:11:43 62° WNW 21:16:56 10° NNE
H-2A R/B 3.4 21:14:25 48° SW 21:15:03 54° W 21:18:52 10° NNW
FENGYUN 3A 4.2 21:10:21 12° S 21:15:18 57° W 21:20:37 10° NNW
Envisat 3.8 21:19:33 36° NNE 21:19:33 36° NNE 21:23:03 10° N
ISS -1.3 21:15:11 10° WSW 21:16:49 26° WSW 21:16:49 26° WSW
Cosmos 2151 3.6 21:16:12 10° N 21:19:19 48° N 21:19:19 48° N
ALOS 3.5 21:20:49 14° SSW 21:24:25 39° W 21:28:49 10° NNW
Gbstr 26 Del rocket 3.3 21:21:21 10° SW 21:25:35 78° SW 21:25:35 78° SW
Cosmos 2195 Rocket 4.4 21:21:48 10° N 21:28:10 90° SE 21:30:04 49° S
Cosmos 158 Rocket 4.3 21:31:35 10° SSW 21:36:24 59° WNW 21:41:14 10° NNE
Cosmos 1943 Rocket 2.8 21:35:25 10° NNW 21:39:39 46° NNE 21:39:39 46° NNE
Cosmos 2369 Rocket 2.4 21:35:27 10° NNW 21:41:04 63° WSW 21:41:35 60° SW
Cosmos 1943 3.6 21:35:57 10° SW 21:41:30 59° WNW 21:47:04 10° NNE
USA 215 3.9 21:37:01 14° NE 21:42:28 50° NNW 21:48:43 10° WSW
Cosmos 2263 4.3 21:42:35 10° NNW 21:47:58 73° WNW 21:47:58 73° WNW
SeaSat 1 4.3 21:47:15 10° NNE 21:55:13 22° SW 21:56:56 10° SW
ERS-1 Rocket 3.9 21:55:23 44° NNW 21:55:23 44° NNW 21:58:51 10° NNW
CENTAUR R/B 4.3 22:51:46 10° W 22:57:03 27° NW 23:02:54 10° NNE
